Location: *
(39.1728°N, 32.1613°E)
Time: 19:11:02
(UTC+00:00)

Daily predictions for brighter satellites

Satellite Brightness Start Highest point End
(mag) Time Altitude Azimuth Time Altitude Azimuth Time Altitude Azimuth
Cosmos 1802 Rocket 4.4 15:46:01 10° N 15:52:26 76° W 15:58:50 10° S
Cosmos 2285 Rocket 4.4 15:48:38 10° N 15:54:41 41° ENE 16:00:38 10° SE
Cosmos 2233 Rocket 4.0 15:49:18 10° N 15:55:35 71° E 16:01:52 10° SSE
NOSS 0 Rocket 4.0 15:51:55 10° NNW 15:58:06 59° ENE 16:04:12 10° SE
CZ-4 R/B 4.3 15:55:00 10° SSE 15:58:55 69° ENE 16:02:53 10° N
Atlas Centaur 2 3.7 15:55:04 10° WSW 16:02:33 43° S 16:09:11 10° ESE
Radarsat Rocket 4.3 15:57:14 10° SE 16:02:44 44° ENE 16:08:33 10° N
Cosmos 2344 4.3 15:58:50 10° S 16:06:08 32° ESE 16:12:25 10° NE
Cosmos 2151 Rocket 4.1 16:10:45 10° NNW 16:15:12 65° W 16:19:39 10° S
Cosmos 2297 Rocket 2.3 16:11:57 10° SSW 16:17:37 84° WNW 16:23:18 10° NNE
Cosmos 44 Rocket 3.3 16:13:31 10° SSW 16:18:20 69° ESE 16:23:20 10° NE
USA 306 0.5 16:16:38 10° NW 16:19:03 87° ENE 16:19:45 27° SE
YAOGAN 1 2.4 16:15:35 10° SSE 16:19:49 79° ENE 16:24:05 10° N
Cosmos 1975 Rocket 3.7 16:16:13 10° SSE 16:20:04 31° E 16:23:53 10° NNE
PSLV R/B 3.6 16:17:22 10° SSE 16:21:19 47° ENE 16:25:16 10° N
SPOT 1/Viking Rocket 4.2 16:18:04 10° S 16:23:06 58° W 16:28:10 10° NNW
Cosmos 1455 Rocket 3.3 16:19:04 10° N 16:23:11 43° E 16:27:16 10° SSE
Aureole 3 Rocket 2.3 16:20:42 10° N 16:24:14 60° E 16:27:16 10° SSE
Cosmos 2061 Rocket 4.2 16:19:16 10° N 16:25:38 78° W 16:31:53 10° S
Helios 1A Rocket 3.5 16:24:50 19° ENE 16:25:47 22° E 16:28:25 10° SSE
Cosmos 2228 3.9 16:23:15 10° NNE 16:26:46 25° ENE 16:30:17 10° SE
CZ-4C R/B 3.8 16:23:28 10° W 16:26:49 22° NW 16:30:48 10° NNE
COSMO-SKYMED 1 2.5 16:22:43 10° N 16:26:51 84° W 16:30:56 10° SSW
CZ-2D R/B 3.2 16:26:45 10° SSE 16:30:37 89° E 16:34:36 10° NNW
Delta 2 Rocket 3.3 16:27:53 10° WSW 16:30:48 42° S 16:32:28 21° ESE
Meteor 2-17 Rocket 4.4 16:26:54 10° S 16:32:49 58° E 16:38:43 10° NNE
Cosmos 1464 Rocket 4.3 16:29:29 10° N 16:35:28 41° ENE 16:41:20 10° SSE
Okean 1 Rocket 3.8 16:34:07 10° NNW 16:38:24 55° W 16:42:38 10° S
Okean 2 Rocket 4.5 16:39:19 10° NNW 16:43:26 40° W 16:47:29 10° SSW
Cosmos 2263 Rocket 2.6 16:40:54 10° S 16:46:06 39° ESE 16:49:56 17° NE
Cosmos 1602 2.6 16:43:45 10° S 16:46:29 73° E 16:47:50 27° NNE
SJ-6B 2.8 16:46:06 31° ESE 16:47:12 41° ENE 16:50:28 10° N
Cosmos 1980 3.7 16:45:48 10° NNW 16:51:29 87° WSW 16:57:07 10° SSE
COSMOS 2428 4.4 16:49:17 10° NW 16:54:26 35° WSW 16:59:33 10° SSW
Cosmos 2237 Rocket 2.2 16:51:04 10° NNW 16:56:47 86° WSW 17:02:28 10° SSE
Meteor 1-27 4.3 16:53:00 10° N 16:58:49 86° W 17:04:39 10° S
SeaSat 1 4.1 16:55:08 10° S 16:59:34 34° WSW 17:04:01 10° NW
Resurs 01 Rocket 1.7 16:58:56 10° S 17:03:19 77° W 17:07:43 10° NNW
SPOT 5 3.6 17:06:50 33° NE 17:06:50 33° NE 17:10:35 10° N
USA 234 4.1 17:03:34 10° SSE 17:09:49 48° SW 17:16:07 10° NW
Cosmos 2227 Rocket 2.5 17:11:20 10° SSW 17:16:55 65° WNW 17:22:34 10° NNE
Cosmos 783 Rocket 4.4 17:13:46 10° SSW 17:19:02 85° ESE 17:22:45 20° NNE
Tsikada Rocket 4.1 17:14:21 10° SSE 17:20:13 49° E 17:26:06 10° NNE
SL-16 R/B 2.6 17:17:15 10° N 17:22:04 41° NE 17:22:04 41° NE
Tiangong -0.6 17:21:15 10° W 17:23:23 36° WNW 17:23:23 36° WNW
Cosmos 1346 Rocket 3.4 17:23:53 10° SSW 17:27:22 49° W 17:28:21 37° NNW
Gbstr 26 Del rocket 4.3 17:34:56 10° WSW 17:41:44 76° NW 17:44:25 44° NE
Haruka 4.0 17:38:38 10° WSW 17:42:50 29° SSW 17:42:50 29° SSW
CSL-04 Debris 4.2 17:49:09 71° N 17:49:09 71° N 17:53:58 10° NNW
Atlas Centaur 2 3.6 17:44:05 10° WSW 17:50:44 34° SSW 17:51:57 31° S
NOSS 3-4 (A) 4.2 17:44:17 10° NW 17:51:22 68° WSW 17:55:54 28° SSE
NOSS 3-4 (C) 4.1 17:44:34 10° NW 17:51:39 69° WSW 17:56:04 30° SSE
CSL-04 Rocket 3.7 17:53:36 71° NW 17:53:36 71° NW 17:58:26 10° NNW
Cosmos 2034 Rocket 4.1 17:47:03 10° N 17:53:13 73° W 17:59:23 10° S
BREEZE M DEB (TANK) 3.9 17:40:44 10° SW 17:58:24 70° SE 17:58:50 68° ESE
Cosmos 2219 4.0 18:10:52 10° SW 18:15:11 47° WSW 18:15:11 47° WSW
Cosmos 2344 4.3 18:12:36 10° WSW 18:20:12 46° NW 18:23:43 28° N
Cosmos 2263 Rocket 3.9 18:25:12 10° WSW 18:30:04 29° WNW 18:31:44 25° NNW
